Date String (YYYY-MM-DD hh:mm:ss) UTC,Instrument flags,Ambient pressure (hPa),Sample flow (lpm),Bypass flow (lpm),Sample temperature (°C),Ambient temperature (°C),ASC tube jacket temperature (°C),LED temperature (°C),Box temperature (°C),Sample RH (%),Span deviation,Mass concentration (μg/m³),Mass concentration (μg/m³),Mass concentration (μg/m³)
DateTimeUTC,F1_M11,P_M11,Q1_M11,Q2_M11,T1_M11,T2_M11,T3_M11,T4_M11,T5_M11,U1_M11,ZSPAN_M11,X0_M11,X2_M11,X1_M11
2023-04-27 22:00:00,,0822.1,4.99,0.00,28.8,27.3,00.0,37.1,30.4,10.3,0000.0,0008.73,0003.31,0001.53
2023-04-27 22:01:00,,0822.0,4.98,0.00,28.8,27.3,00.0,37.1,30.4,10.5,0000.0,0008.08,0003.31,0001.53
2023-04-27 22:02:00,,0822.0,5.00,0.00,28.8,27.3,00.0,37.1,30.4,10.5,0000.0,0007.77,0003.29,0001.52
2023-04-27 22:03:00,,0822.0,5.00,0.00,28.8,27.3,00.0,37.1,30.4,10.2,0000.0,0007.58,0003.21,0001.50
2023-04-27 22:04:00,,0822.0,5.00,0.00,28.9,27.3,00.0,37.1,30.4,10.6,0000.0,0007.27,0003.13,0001.49
2023-04-27 22:05:00,,0822.1,5.00,0.00,28.9,27.3,00.0,37.2,30.4,10.7,0000.0,0007.06,0003.07,0001.49
2023-04-27 22:06:00,,0822.2,5.01,0.00,28.9,27.3,00.0,37.2,30.4,10.6,0000.0,0006.72,0002.98,0001.47
2023-04-27 22:07:00,,0822.2,5.00,0.00,28.9,27.3,00.0,37.2,30.4,10.5,0000.0,0006.64,0002.97,0001.46
2023-04-27 22:08:00,,0822.2,5.00,0.00,28.9,27.3,00.0,37.2,30.4,10.6,0000.0,0006.30,0002.83,0001.44
2023-04-27 22:09:00,,0822.0,5.00,0.00,28.9,27.3,00.0,37.2,30.4,11.0,0000.0,0006.05,0002.80,0001.44
2023-04-27 22:10:00,,0822.1,5.00,0.00,28.9,27.3,00.0,37.2,30.4,10.7,0000.0,0006.04,0002.82,0001.43
2023-04-27 22:11:00,,0822.2,5.00,0.00,28.9,27.3,00.0,37.2,30.4,10.7,0000.0,0006.51,0002.92,0001.42
2023-04-27 22:12:00,,0822.3,5.00,0.00,28.9,27.3,00.0,37.2,30.4,11.1,0000.0,0006.60,0002.91,0001.40
2023-04-27 22:13:00,,0822.2,5.00,0.00,28.9,27.3,00.0,37.2,30.5,11.3,0000.0,0006.33,0002.79,0001.38
2023-04-27 22:14:00,,0822.2,4.99,0.00,28.9,27.3,00.0,37.2,30.5,11.3,0000.0,0006.97,0002.77,0001.38
2023-04-27 22:15:00,,0822.2,5.00,0.00,28.9,27.3,00.0,37.2,30.5,11.5,0000.0,0007.51,0002.85,0001.38
2023-04-27 22:16:00,,0822.3,5.00,0.00,28.9,27.3,00.0,37.2,30.4,11.5,0000.0,0007.88,0002.88,0001.37
2023-04-27 22:17:00,,0822.4,5.00,0.00,28.9,27.3,00.0,37.2,30.5,11.4,0000.0,0007.89,0002.89,0001.37
2023-04-27 22:18:00,,0822.4,5.01,0.00,28.9,27.3,00.0,37.2,30.5,11.5,0000.0,0007.91,0002.88,0001.36
2023-04-27 22:19:00,,0822.4,5.01,0.00,28.9,27.3,00.0,37.2,30.4,11.9,0000.0,0008.23,0002.92,0001.35
2023-04-27 22:20:00,,0822.3,5.00,0.00,28.9,27.3,00.0,37.2,30.4,12.0,0000.0,0008.56,0002.93,0001.35
2023-04-27 22:21:00,,0822.4,4.99,0.00,28.9,27.3,00.0,37.2,30.4,11.9,0000.0,0009.03,0002.89,0001.33
2023-04-27 22:22:00,,0822.4,5.00,0.00,28.9,27.3,00.0,37.2,30.4,11.6,0000.0,0009.06,0002.77,0001.32
2023-04-27 22:23:00,,0822.4,5.01,0.00,28.9,27.3,00.0,37.2,30.4,12.2,0000.0,0008.82,0002.67,0001.33
2023-04-27 22:24:00,,0822.4,5.00,0.00,28.9,27.3,00.0,37.2,30.4,11.8,0000.0,0008.67,0002.67,0001.33
2023-04-27 22:25:00,,0822.4,4.99,0.00,28.9,27.3,00.0,37.2,30.4,11.9,0000.0,0008.20,0002.62,0001.33
2023-04-27 22:26:00,,0822.3,5.00,0.00,28.9,27.3,00.0,37.2,30.4,11.9,0000.0,0007.87,0002.60,0001.31
2023-04-27 22:27:00,,0822.2,5.00,0.00,28.9,27.3,00.0,37.3,30.5,11.6,0000.0,0007.60,0002.63,0001.31
2023-04-27 22:28:00,,0822.1,5.00,0.00,28.9,27.3,00.0,37.3,30.4,11.2,0000.0,0008.16,0002.66,0001.30
2023-04-27 22:29:00,,0822.3,5.01,0.00,28.9,27.3,00.0,37.3,30.5,11.2,0000.0,0009.36,0002.67,0001.31
2023-04-27 22:30:00,,0822.3,5.00,0.00,28.9,27.3,00.0,37.3,30.5,11.6,0000.0,0009.06,0002.61,0001.30
2023-04-27 22:31:00,,0822.1,5.00,0.00,28.9,27.3,00.0,37.3,30.5,11.3,0000.0,0008.72,0002.58,0001.29
2023-04-27 22:32:00,,0822.1,5.01,0.00,28.9,27.3,00.0,37.3,30.5,11.2,0000.0,0008.23,0002.59,0001.29
2023-04-27 22:33:00,,0822.0,5.01,0.00,28.9,27.3,00.0,37.3,30.5,11.2,0000.0,0008.07,0002.64,0001.29
2023-04-27 22:34:00,,0822.0,5.00,0.00,28.9,27.3,00.0,37.3,30.5,11.2,0000.0,0008.32,0002.79,0001.29
2023-04-27 22:35:00,,0821.9,5.01,0.00,28.9,27.3,00.0,37.3,30.5,11.1,0000.0,0008.47,0002.87,0001.29
2023-04-27 22:36:00,,0822.0,4.98,0.00,28.9,27.3,00.0,37.3,30.5,11.1,0000.0,0008.75,0002.99,0001.29
2023-04-27 22:37:00,,0822.0,4.99,0.00,28.9,27.2,00.0,37.3,30.4,11.1,0000.0,0008.82,0003.03,0001.30
2023-04-27 22:38:00,,0822.0,5.01,0.00,28.9,27.2,00.0,37.3,30.5,11.0,0000.0,0008.74,0003.00,0001.30
2023-04-27 22:39:00,,0822.1,5.00,0.00,28.9,27.2,00.0,37.3,30.4,11.1,0000.0,0008.29,0002.93,0001.28
2023-04-27 22:40:00,,0822.0,5.00,0.00,28.9,27.2,00.0,37.3,30.4,11.2,0000.0,0007.09,0002.88,0001.26
2023-04-27 22:41:00,,0822.0,5.00,0.00,28.9,27.2,00.0,37.3,30.4,11.2,0000.0,0007.20,0002.95,0001.25
2023-04-27 22:42:00,,0822.0,5.01,0.00,28.9,27.2,00.0,37.3,30.4,11.0,0000.0,0007.40,0003.05,0001.25
2023-04-27 22:43:00,,0822.1,5.01,0.00,28.9,27.2,00.0,37.3,30.4,11.2,0000.0,0007.38,0003.08,0001.24
2023-04-27 22:44:00,,0822.2,5.01,0.00,28.9,27.2,00.0,37.3,30.4,11.3,0000.0,0007.35,0003.03,0001.23
2023-04-27 22:45:00,,0822.3,4.99,0.00,28.9,27.2,00.0,37.3,30.4,11.3,0000.0,0007.08,0002.90,0001.23
2023-04-27 22:46:00,,0822.2,5.00,0.00,28.9,27.2,00.0,37.3,30.4,11.5,0000.0,0006.78,0002.81,0001.19
2023-04-27 22:47:00,,0822.3,5.00,0.00,28.9,27.2,00.0,37.3,30.4,11.1,0000.0,0006.37,0002.73,0001.18
2023-04-27 22:48:00,,0822.2,5.00,0.00,28.9,27.2,00.0,37.3,30.4,11.2,0000.0,0006.41,0002.74,0001.16
2023-04-27 22:49:00,,0822.2,5.00,0.00,28.9,27.2,00.0,37.3,30.4,10.8,0000.0,0006.41,0002.72,0001.15
2023-04-27 22:50:00,,0822.3,5.01,0.00,28.9,27.2,00.0,37.3,30.4,11.0,0000.0,0006.28,0002.75,0001.16
2023-04-27 22:51:00,,0822.3,4.98,0.00,28.9,27.2,00.0,37.3,30.4,11.0,0000.0,0006.21,0002.84,0001.18
2023-04-27 22:52:00,,0822.3,5.01,0.00,28.9,27.2,00.0,37.3,30.4,11.3,0000.0,0006.18,0002.83,0001.18
2023-04-27 22:53:00,,0822.4,5.01,0.00,28.9,27.2,00.0,37.3,30.4,10.9,0000.0,0005.97,0002.77,0001.18
2023-04-27 22:54:00,,0822.4,5.00,0.00,28.9,27.2,00.0,37.3,30.4,11.0,0000.0,0006.15,0002.80,0001.21
2023-04-27 22:55:00,,0822.4,5.01,0.00,28.9,27.2,00.0,37.3,30.4,11.0,0000.0,0006.54,0002.86,0001.22
2023-04-27 22:56:00,,0822.4,5.00,0.00,28.9,27.2,00.0,37.3,30.4,10.9,0000.0,0006.76,0002.97,0001.22
2023-04-27 22:57:00,,0822.4,4.99,0.00,28.9,27.2,00.0,37.3,30.4,10.8,0000.0,0007.25,0003.06,0001.25
2023-04-27 22:58:00,,0822.4,5.00,0.00,28.9,27.2,00.0,37.3,30.4,11.1,0000.0,0007.41,0003.11,0001.29
2023-04-27 22:59:00,,0822.4,5.00,0.00,28.9,27.2,00.0,37.3,30.4,10.8,0000.0,0007.47,0003.14,0001.31
